Hurghada, Egypt

3:09 AM EET on February 06, 2016 (GMT +0200)
Hurghada International

Weather History for HEGN - January, 2012

Change the Weather History Date:

Wednesday, January 25, 2012

  Actual Average Record
Temperature  
Mean Temperature 62 °F -  
Max Temperature 70 °F 70 °F 86 °F (2015)
Min Temperature 53 °F 53 °F 47 °F (2016)
Degree Days  
Heating Degree Days 4    
Growing Degree Days 12 (Base 50)    
Moisture  
Dew Point 52 °F    
Average Humidity 69    
Maximum Humidity 82    
Minimum Humidity 49    
Precipitation  
Precipitation 0.00 in - - ()
Sea Level Pressure  
Sea Level Pressure 29.95 in    
Wind  
Wind Speed 5 mph ()    
Max Wind Speed 13 mph    
Max Gust Speed -    
Visibility 6.2 miles    
Events      
Averages and records for this station are not official NWS values.
T = Trace of Precipitation, MM = Missing Value Source: Averaged Metar Reports

Daily Weather History Graph

Daily Weather History Graph

Search for Another Location

Airport or City:

Trip Planner

Search our weather history database for the weather conditions in past years. The results will help you decide how hot, cold, wet, or windy it might be!

Date:

Astronomy

Jan. 25, 2012 Rise Set
Actual Time 6:34 AM EET 5:20 PM EET
Civil Twilight 6:09 AM EET 5:45 PM EET
Nautical Twilight 5:41 AM EET 6:13 PM EET
Astronomical Twilight 5:13 AM EET 6:41 PM EET
Moon 7:39 AM EET (1/25) 7:34 PM EET (1/25)
Length of Visible Light 11h 35m
Length of Day
10h 46m
Waxing Crescent, 5% of the Moon is Illuminated
Jan 25
Waxing Crescent
Jan 31
First Quarter
Feb 7
Full
Feb 14
Last Quarter
Feb 22
New

Hourly Weather History & Observations

Time (EET) Temp. Dew Point Humidity Pressure Visibility Wind Dir Wind Speed Gust Speed Precip Events Conditions
12:00 AM 55.4 °F 46.4 °F 72% 30.01 in - WSW 4.6 mph - N/A   Clear
1:00 AM 55.4 °F 46.4 °F 72% 29.98 in - WSW 4.6 mph - N/A   Clear
2:00 AM 54 °F 46 °F 67% 29.99 in 6 mi Calm Calm - -   Clear
2:00 AM 53.6 °F 46.4 °F 77% 29.98 in - Calm Calm - N/A   Clear
3:00 AM 53.6 °F 42.8 °F 67% 29.98 in - Calm Calm - N/A   Clear
4:00 AM 53.6 °F 42.8 °F 67% 29.98 in - WNW 5.8 mph - N/A   Clear
5:00 AM 55.4 °F 44.6 °F 67% 29.98 in - WNW 12.7 mph - N/A   Clear
6:00 AM 57.2 °F 44.6 °F 63% 30.01 in - WNW 6.9 mph - N/A   Clear
7:00 AM 57.2 °F 44.6 °F 63% 29.98 in 6.2 mi WNW 10.4 mph - N/A   Mostly Cloudy
8:00 AM 58 °F 44 °F 49% 30.00 in 6 mi WSW 5.8 mph - -   Partly Cloudy
8:00 AM 59.0 °F 44.6 °F 59% 29.98 in 6.2 mi WSW 5.8 mph - N/A   Scattered Clouds
9:00 AM 64.4 °F 48.2 °F 56% 29.98 in 6.2 mi North 5.8 mph - N/A   Scattered Clouds
10:00 AM 66.2 °F 50.0 °F 56% 29.98 in 6.2 mi North 3.5 mph - N/A   Mostly Cloudy
11:00 AM 66.2 °F 55.4 °F 68% 29.98 in 6.2 mi SSW 3.5 mph - N/A   Mostly Cloudy
12:00 PM 69.8 °F 59.0 °F 68% 29.95 in 6.2 mi SE 4.6 mph - N/A   Mostly Cloudy
1:00 PM 69.8 °F 59.0 °F 68% 29.89 in 6.2 mi ESE 6.9 mph - N/A   Mostly Cloudy
2:00 PM 69 °F 59 °F 63% 29.91 in 6 mi ESE 11.5 mph - -   Scattered Clouds
2:00 PM 69.8 °F 59.0 °F 68% 29.89 in 6.2 mi ESE 11.5 mph - N/A   Mostly Cloudy
3:00 PM 69.8 °F 59.0 °F 68% 29.89 in 6.2 mi ESE 11.5 mph - N/A   Mostly Cloudy
4:00 PM 69.8 °F 59.0 °F 68% 29.89 in 6.2 mi SE 10.4 mph - N/A   Mostly Cloudy
5:31 PM 69.8 °F 59.0 °F 68% 29.89 in 6.2 mi SSE 6.9 mph - N/A   Mostly Cloudy
6:00 PM 68.0 °F 60.8 °F 78% 29.89 in 6.2 mi SSE 4.6 mph - N/A   Mostly Cloudy
7:00 PM 68.0 °F 59.0 °F 73% 29.92 in - SSE 3.5 mph - N/A   Clear
8:00 PM 67 °F 59 °F 69% 29.92 in 6 mi South 4.6 mph - -  
8:00 PM 66.2 °F 59.0 °F 78% 29.92 in - South 4.6 mph - N/A   Clear
9:00 PM 62.6 °F 57.2 °F 82% 29.92 in - East 2.3 mph - N/A   Clear
10:00 PM 60.8 °F 55.4 °F 82% 29.92 in - SW 3.5 mph - N/A   Clear
11:00 PM 60.8 °F 55.4 °F 82% 29.92 in - SSW 2.3 mph - N/A   Clear